Date,TemperatureHighF,TemperatureAvgF,TemperatureLowF,DewpointHighF,DewpointAvgF,DewpointLowF,HumidityHigh,HumidityAvg,HumidityLow,PressureMaxIn,PressureMinIn,WindSpeedMaxMPH,WindSpeedAvgMPH,GustSpeedMaxMPH,PrecipitationSumIn
2012-1-1,42.6,34.0,26.5,36.9,30.2,22.1,95,86,71,28.90,28.49,19,7,29,0.02
2012-1-2,27.0,23.5,18.7,24.0,16.4,7.8,93,74,59,29.12,28.82,20,9,26,0.00
2012-1-3,22.4,17.9,13.4,13.1,7.6,4.2,78,63,49,29.24,29.10,18,8,23,0.00
2012-1-4,33.1,25.5,17.6,25.0,16.3,8.8,80,67,57,29.13,28.82,12,5,16,0.00
2012-1-5,41.1,32.0,20.7,30.6,25.2,18.2,94,76,49,28.96,28.66,11,4,13,0.04
2012-1-6,53.0,43.4,36.7,35.0,31.5,29.1,84,63,45,28.70,28.63,9,4,14,0.00
2012-1-7,42.2,37.9,31.7,33.9,27.6,22.0,80,66,54,29.14,28.65,15,5,20,0.00
2012-1-8,37.7,28.8,18.9,22.8,19.4,14.2,90,69,41,29.32,29.14,6,1,9,0.00
2012-1-9,41.5,30.6,18.5,25.6,21.1,16.5,94,70,38,29.24,28.88,12,4,19,0.00
2012-1-10,47.9,34.9,25.3,31.6,26.7,23.0,94,74,43,29.01,28.84,9,2,12,0.00
2012-1-11,45.7,34.9,22.1,34.7,28.4,20.4,94,78,50,28.84,28.46,8,2,11,0.07
2012-1-12,36.8,33.2,18.7,36.0,31.8,14.4,97,94,82,28.46,28.28,16,4,24,0.24
2012-1-13,24.8,21.3,16.4,23.1,17.7,12.3,95,85,76,28.91,28.36,15,6,20,0.00
2012-1-14,21.9,19.3,17.5,16.8,15.6,14.3,91,85,75,29.18,28.91,7,2,10,0.00
2012-1-15,22.5,18.0,15.1,15.4,12.1,8.1,86,77,65,29.38,29.18,13,5,15,0.00
2012-1-16,41.6,29.5,15.3,40.1,24.2,10.5,97,80,61,29.23,28.74,13,6,17,0.30
2012-1-17,48.4,37.4,22.0,47.3,35.0,13.1,99,90,68,28.99,28.35,20,8,27,1.04
2012-1-18,23.8,20.7,17.6,14.9,11.2,7.3,78,66,58,29.21,28.93,17,7,21,0.00
2012-1-19,24.9,16.8,-1.2,23.3,10.1,-5.7,94,74,54,29.10,28.70,19,7,26,0.00
2012-1-20,14.2,6.7,-3.2,10.2,1.2,-6.9,89,78,59,29.22,29.02,8,2,10,0.00
2012-1-21,25.2,12.4,2.2,12.0,7.0,-1.0,89,79,52,29.23,29.02,10,3,13,0.00
2012-1-22,33.2,21.5,1.5,32.8,19.4,-1.7,98,91,83,29.20,28.75,12,6,17,0.00
2012-1-23,45.7,37.2,28.8,43.1,34.5,21.1,98,90,72,28.79,28.41,16,9,24,0.68
2012-1-24,30.3,29.0,27.3,23.7,22.1,20.4,79,75,71,29.28,28.79,13,6,19,0.00
2012-1-25,29.9,27.4,25.8,23.3,21.2,19.9,86,77,70,29.32,29.12,9,3,13,0.00
2012-1-26,32.7,29.8,26.0,30.2,27.6,23.2,96,91,86,29.13,28.52,6,2,10,0.25
2012-1-27,38.3,31.8,27.1,30.2,26.9,21.5,96,83,53,28.92,28.50,19,5,23,0.08
2012-1-28,32.1,28.9,24.5,30.1,22.4,13.6,97,77,53,29.02,28.70,17,7,24,0.07
2012-1-29,30.0,25.7,19.9,26.1,19.2,10.9,93,76,58,29.16,28.83,20,6,27,0.00
2012-1-30,41.1,24.5,11.3,30.1,18.6,8.5,91,78,65,29.18,28.87,15,4,20,0.01
2012-1-31,54.3,47.0,40.8,44.2,36.2,30.1,87,66,52,28.89,28.80,16,7,22,0.01
2012-2-1,49.5,40.7,35.0,44.9,34.1,30.0,87,77,67,29.09,28.80,12,4,17,0.00
2012-2-2,39.8,32.7,22.2,30.3,27.0,20.5,93,80,61,29.36,29.08,12,3,14,0.00
2012-2-3,35.5,28.2,18.9,31.1,24.5,17.1,94,86,75,29.44,29.35,7,2,10,0.00
2012-2-4,42.6,31.7,20.3,26.4,23.8,18.1,91,73,46,29.36,29.12,10,2,12,0.00
2012-2-5,42.4,28.1,17.5,28.1,21.7,15.5,92,78,49,29.21,29.11,9,2,12,0.00
2012-2-6,46.6,33.4,21.2,28.3,24.6,19.0,94,72,40,29.15,29.00,13,5,18,0.00
2012-2-7,33.8,29.9,24.0,29.5,24.3,12.2,92,79,59,29.32,29.09,11,4,15,0.00
2012-2-8,35.1,24.8,15.9,16.4,13.1,7.7,89,63,33,29.31,29.17,10,3,13,0.00
2012-2-9,36.8,27.2,20.1,20.1,16.5,10.5,85,65,35,29.18,29.06,12,4,17,0.00
2012-2-10,31.2,25.5,11.1,27.5,21.0,8.4,94,83,75,29.06,28.79,18,7,28,0.00
2012-2-11,17.7,11.8,5.4,10.1,4.5,-5.7,89,72,47,29.17,28.90,19,10,26,0.00
2012-2-12,29.2,21.6,15.0,14.7,11.8,8.4,83,66,49,29.14,29.07,18,6,23,0.00
2012-2-13,34.0,27.1,17.4,16.2,11.9,2.6,76,54,28,29.09,28.91,10,4,14,0.00
2012-2-14,30.7,28.4,25.4,26.6,24.4,15.3,95,85,57,29.00,28.82,10,4,11,0.01
2012-2-15,37.2,32.8,30.4,32.6,27.1,24.3,93,79,70,29.14,29.00,12,5,16,0.12
2012-2-16,40.8,35.1,25.9,37.9,32.1,22.8,96,88,71,29.04,28.89,12,3,16,0.14
2012-2-17,41.3,34.0,26.1,26.0,22.9,16.8,87,65,38,29.09,28.91,14,4,19,0.00
2012-2-18,37.3,30.1,16.9,28.7,20.1,12.9,87,66,45,29.18,28.89,18,6,24,0.00
2012-2-19,33.4,22.4,14.5,17.0,14.3,11.6,89,72,45,29.18,29.08,10,3,13,0.00
2012-2-20,36.0,24.4,10.6,21.6,18.0,7.9,91,77,52,29.32,29.08,11,4,14,0.00
2012-2-21,38.5,30.1,25.0,36.0,25.3,21.1,93,82,67,29.08,28.59,13,5,18,0.10
2012-2-22,37.8,33.3,27.1,30.5,27.7,24.2,91,79,63,28.66,28.40,11,4,15,0.00
2012-2-23,38.9,32.9,23.4,30.6,28.4,21.8,96,83,62,28.60,28.41,8,3,10,0.02
2012-2-24,31.9,30.3,27.5,31.0,27.9,23.7,96,90,78,28.72,28.26,18,5,24,0.00
2012-2-25,30.1,26.9,24.2,25.5,20.7,15.0,95,77,58,29.29,28.72,18,6,24,0.00
2012-2-26,36.4,26.7,10.1,23.4,17.9,6.9,91,70,55,29.36,29.07,15,5,22,0.08
2012-2-27,39.4,33.8,27.2,23.4,20.9,17.0,72,59,41,29.43,29.03,19,6,25,0.12
2012-2-28,40.6,29.8,15.2,27.2,21.2,13.0,92,71,53,29.45,29.07,11,4,17,0.06
2012-2-29,41.2,35.2,30.8,40.5,32.8,22.4,98,91,67,29.08,28.44,11,5,16,0.65
2012-3-1,40.9,35.6,31.3,32.6,29.4,28.2,93,78,66,28.85,28.54,11,4,16,0.03
2012-3-2,45.4,36.6,30.5,43.3,32.2,27.4,98,84,65,28.84,28.14,18,5,30,0.46
2012-3-3,34.0,30.5,25.6,28.3,23.0,18.5,82,73,62,28.70,28.26,20,8,30,0.00
2012-3-4,32.0,26.7,22.8,23.5,20.1,17.3,89,76,57,28.87,28.70,11,4,17,0.01
2012-3-5,28.8,23.7,17.8,21.2,14.0,8.7,89,67,47,29.34,28.86,15,6,19,0.00
2012-3-6,56.8,39.6,25.4,34.3,25.3,16.0,76,58,39,29.33,29.01,20,10,26,0.00
2012-3-7,64.2,56.3,46.4,43.4,33.6,24.2,56,42,34,29.09,28.88,27,12,35,0.00
2012-3-8,58.7,43.3,27.0,50.9,35.0,19.3,93,73,53,29.10,28.77,22,8,30,0.22
2012-3-9,34.8,29.6,21.2,25.7,15.9,8.0,93,58,35,29.48,29.07,21,8,27,0.00
2012-3-10,47.1,32.6,16.3,24.3,16.2,9.0,82,52,32,29.49,29.21,17,7,23,0.00
2012-3-11,65.1,46.2,37.0,31.6,23.7,20.6,66,43,19,29.29,29.17,12,4,16,0.00
2012-3-12,59.7,50.0,36.0,53.9,44.2,29.2,96,81,47,29.17,28.74,18,6,22,0.65
2012-3-13,63.3,51.7,36.7,48.0,36.5,18.4,93,63,18,29.10,28.84,16,4,23,0.13
2012-3-14,75.8,54.1,31.1,49.9,36.4,22.9,86,55,29,29.12,28.99,15,5,20,0.00
2012-3-15,75.5,61.2,47.4,63.1,53.4,44.9,94,76,57,29.02,28.91,13,4,17,0.12
2012-3-16,72.7,59.6,45.8,58.7,53.7,44.6,97,82,58,29.11,29.00,9,3,14,0.00
2012-3-17,74.5,60.8,44.9,55.5,51.2,43.7,98,74,42,29.16,29.07,14,4,18,0.00
2012-3-18,70.6,57.5,45.5,57.0,51.1,43.8,96,80,55,29.10,29.02,11,3,13,0.19
2012-3-19,76.3,59.8,45.5,58.8,52.1,43.6,97,78,48,29.10,29.02,11,4,16,0.00
2012-3-20,79.3,60.6,46.0,56.8,51.3,44.4,96,75,38,29.15,29.05,13,3,16,0.00
2012-3-21,82.8,65.2,46.8,55.8,50.7,44.7,94,63,31,29.18,29.07,11,3,16,0.00
2012-3-22,84.3,63.9,47.2,56.8,50.8,45.1,93,67,29,29.14,29.04,12,2,15,0.00
2012-3-23,67.9,57.8,50.9,55.8,51.4,48.3,94,80,57,29.08,28.86,13,2,16,0.42
2012-3-24,56.3,52.1,49.2,52.8,49.7,46.8,96,91,82,28.86,28.78,6,2,9,0.02
2012-3-25,67.0,55.4,47.0,49.3,43.7,22.2,96,68,34,29.06,28.85,15,7,23,0.00
2012-3-26,46.8,37.5,30.4,30.0,20.7,14.5,74,51,30,29.36,29.06,14,6,21,0.00
2012-3-27,53.9,39.1,24.7,28.8,19.7,11.4,71,47,27,29.35,28.83,16,6,25,0.00
2012-3-28,63.3,54.9,44.5,47.0,37.4,27.7,72,52,38,28.96,28.69,22,9,29,0.00
2012-3-29,46.9,39.4,33.4,29.6,27.3,25.4,76,61,49,29.12,28.96,14,5,18,0.00
2012-3-30,38.0,33.1,28.3,33.5,29.3,23.5,93,85,73,29.07,28.71,13,4,21,0.62
2012-3-31,39.8,35.6,31.6,32.1,30.0,28.5,93,80,67,28.97,28.86,9,4,12,0.00
2012-4-1,52.5,41.8,34.4,42.3,36.0,30.7,90,79,66,28.90,28.67,12,4,16,0.00
2012-4-2,53.8,41.5,28.1,35.9,31.6,25.7,92,69,41,29.03,28.82,9,3,13,0.00
2012-4-3,64.3,46.5,33.2,47.5,37.8,27.4,90,72,51,29.03,28.81,15,4,20,0.20
2012-4-4,58.8,48.3,34.8,43.8,31.1,21.6,89,55,24,28.94,28.84,14,5,19,0.00
2012-4-5,47.0,38.3,30.2,28.9,25.2,20.5,81,60,38,29.11,28.91,12,5,19,0.00
2012-4-6,55.6,37.3,23.9,26.6,21.9,17.3,84,58,23,29.26,29.11,10,3,13,0.00
2012-4-7,62.5,43.3,23.9,32.8,24.0,16.6,93,55,17,29.30,29.10,12,2,14,0.00
2012-4-8,58.0,49.4,38.3,40.5,28.2,16.8,87,48,20,29.11,29.01,22,8,30,0.00
2012-4-9,58.1,46.0,31.2,36.5,25.4,13.4,87,50,20,29.04,28.81,24,5,29,0.00
2012-4-10,42.0,36.8,31.9,30.6,22.9,19.3,86,57,41,29.00,28.84,21,7,27,0.00
2012-4-11,51.3,40.2,31.7,27.7,24.6,21.0,76,55,32,29.17,28.97,14,6,18,0.00
2012-4-12,55.2,40.5,24.0,31.2,25.7,21.6,92,60,28,29.22,29.11,12,3,16,0.00
2012-4-13,60.7,45.0,25.5,37.9,28.3,23.4,93,58,26,29.23,29.09,11,3,16,0.00
2012-4-14,63.2,56.5,40.3,53.6,46.4,31.7,85,68,58,29.11,28.88,13,7,18,0.07
2012-4-15,75.3,63.9,55.7,62.0,55.5,52.3,93,76,49,28.92,28.76,18,6,23,1.08
2012-4-16,69.2,61.6,45.1,57.9,48.2,33.5,80,61,45,29.12,28.63,23,10,32,0.03
2012-4-17,55.7,45.2,34.2,35.1,31.5,28.0,86,60,40,29.34,29.12,12,4,15,0.00
2012-4-18,64.2,47.5,29.7,39.8,34.7,27.4,91,65,32,29.30,28.45,16,4,18,0.00
2012-4-19,72.3,61.7,47.8,51.1,44.9,36.2,72,54,40,28.98,28.85,10,3,12,0.00
2012-4-20,73.2,54.0,37.9,51.8,44.5,34.6,89,72,41,28.89,28.09,16,7,22,0.17
2012-4-21,51.8,42.2,37.3,35.1,30.6,25.1,89,65,42,29.01,28.88,14,7,21,0.01
2012-4-22,52.3,39.6,31.5,30.9,25.8,17.9,83,61,26,29.01,28.94,17,6,24,0.00
2012-4-23,56.8,42.6,36.2,23.0,17.6,8.1,54,38,16,29.73,28.63,23,10,33,0.00
2012-4-24,60.9,46.6,38.0,30.1,19.0,12.6,59,34,19,28.71,28.55,23,10,30,0.00
2012-4-25,62.8,49.2,31.5,46.7,34.3,27.3,89,61,30,29.66,28.71,12,3,16,0.03
2012-4-26,55.6,49.1,38.4,47.9,38.4,18.5,90,68,38,29.06,27.90,18,7,26,0.06
2012-4-27,54.6,41.3,29.5,29.0,20.9,15.0,78,47,22,29.23,29.06,13,4,17,0.00
2012-4-28,44.6,39.4,31.5,36.9,30.6,22.6,90,71,53,31.78,28.32,10,3,13,0.08
2012-4-29,62.2,44.4,23.4,31.0,23.3,15.2,91,51,17,29.32,28.34,9,2,13,0.00
2012-4-30,56.0,49.1,40.1,52.6,41.5,21.3,93,76,36,29.21,28.88,10,3,15,0.60
2012-5-1,60.5,53.8,48.3,53.7,48.5,43.8,93,82,67,29.07,28.89,11,3,13,0.02
2012-5-2,82.4,64.3,50.8,65.4,55.3,47.9,93,75,44,28.99,28.83,18,4,24,0.00
2012-5-3,87.0,70.3,57.8,65.8,59.1,55.0,93,71,37,29.00,28.85,22,4,30,0.24
2012-5-4,78.4,67.4,60.0,64.3,60.2,56.2,92,78,54,29.01,28.91,10,3,14,0.02
2012-5-5,69.4,60.3,53.0,56.3,51.8,48.1,88,74,53,29.10,28.96,8,3,11,0.00
2012-5-6,69.5,58.8,48.5,50.0,41.3,31.9,90,55,29,29.11,28.27,10,3,14,0.00
2012-5-7,67.4,56.8,48.6,59.2,49.7,31.8,91,78,37,29.01,28.79,8,2,11,0.23
2012-5-8,71.0,59.9,46.3,58.1,44.9,38.9,91,60,38,28.84,28.78,13,3,17,0.00
2012-5-9,65.5,50.2,44.2,47.5,43.0,35.2,91,77,38,28.87,28.77,16,2,24,0.08
2012-5-10,64.7,51.0,37.5,42.5,34.1,27.9,91,57,25,32.89,28.24,17,4,22,0.00
2012-5-11,74.0,58.9,37.6,43.1,36.0,30.5,86,48,23,29.14,29.00,11,2,14,0.00
2012-5-12,69.2,59.8,47.4,57.6,49.1,36.7,92,69,44,29.21,29.14,7,2,10,0.06
2012-5-13,69.7,58.0,49.3,56.6,51.2,45.2,93,79,54,29.23,29.10,8,2,15,0.14
2012-5-14,76.5,60.8,44.2,54.5,42.7,32.7,92,59,21,29.11,28.31,8,2,12,0.00
2012-5-15,81.2,63.3,41.8,51.6,43.3,37.7,91,55,25,29.02,28.83,12,2,15,0.00
2012-5-16,68.2,57.6,43.0,52.8,38.8,27.8,85,52,30,29.11,28.86,16,5,25,0.00
2012-5-17,69.1,54.3,35.9,43.4,37.1,31.7,91,57,26,29.21,29.11,8,2,12,0.00
2012-5-18,77.2,58.5,39.2,48.0,39.7,32.3,91,56,21,29.16,29.06,8,2,11,0.00
2012-5-19,85.3,66.6,43.5,52.9,45.8,40.0,91,53,24,29.14,29.08,11,2,13,0.00
2012-5-20,88.0,71.5,50.3,57.4,50.8,46.5,88,52,26,29.15,29.00,12,3,16,0.00
2012-5-21,71.3,64.3,56.4,59.3,55.0,49.4,88,72,52,29.03,28.99,12,4,16,0.01
2012-5-22,70.8,58.4,47.0,50.3,47.4,43.0,87,68,42,29.02,28.92,9,4,14,0.00
2012-5-23,78.9,61.4,40.2,55.5,46.1,37.7,93,63,28,28.97,28.85,11,2,12,0.00
2012-5-24,85.6,71.2,52.0,60.5,56.6,49.2,91,62,38,28.93,28.77,17,5,24,0.00
2012-5-25,84.5,75.7,59.0,62.3,54.2,44.2,79,49,25,29.12,28.82,12,5,18,0.00
2012-5-26,73.8,64.3,56.7,57.8,53.8,48.6,87,69,51,29.31,29.11,10,2,12,0.22
2012-5-27,83.3,71.3,59.2,64.7,58.8,53.6,83,65,49,29.15,28.95,9,4,15,0.00
2012-5-28,92.3,78.0,60.4,66.8,60.6,57.3,91,59,31,28.95,28.75,15,4,19,0.00
2012-5-29,82.3,75.9,61.3,63.3,52.1,39.2,79,46,22,28.84,28.71,13,4,18,0.00
2012-5-30,72.5,61.6,46.6,48.2,44.3,38.8,88,55,31,28.91,28.82,13,4,20,0.00
2012-5-31,61.4,53.4,47.3,49.5,44.8,40.3,89,72,57,29.00,28.22,10,4,15,0.14
2012-6-1,54.3,50.9,47.7,51.6,47.8,44.5,92,89,83,28.86,28.54,12,4,15,0.37
2012-6-2,72.3,58.1,45.7,47.9,42.3,33.1,88,59,25,28.73,28.65,16,4,24,0.00
2012-6-3,77.8,66.7,55.9,51.5,46.7,39.5,81,52,26,28.80,28.71,17,4,24,0.00
2012-6-4,72.6,61.7,49.8,49.8,47.7,40.6,88,62,33,28.93,28.05,14,5,17,0.00
2012-6-5,68.5,58.4,48.4,49.8,45.6,41.4,89,65,39,29.02,28.18,12,3,18,0.00
2012-6-6,77.3,61.3,40.3,50.9,44.2,37.7,92,59,25,29.08,29.00,12,2,15,0.00
2012-6-7,81.4,65.9,46.7,52.7,46.6,42.6,91,55,26,29.10,29.02,12,4,18,0.00
2012-6-8,84.0,68.4,49.3,53.0,46.7,40.4,85,51,25,29.07,28.93,11,2,15,0.00
2012-6-9,88.5,73.9,56.3,56.4,50.6,47.6,83,47,25,28.97,28.89,11,2,18,0.00
2012-6-10,90.8,75.5,55.1,56.9,53.1,50.0,87,50,27,29.05,28.95,12,3,15,0.00
2012-6-11,77.4,69.8,61.2,69.1,62.3,54.5,86,77,56,28.99,28.85,13,4,16,0.01
2012-6-12,76.8,70.7,58.5,66.7,53.8,42.4,92,59,30,29.10,28.80,16,6,20,0.02
2012-6-13,74.8,60.5,46.6,47.6,41.5,36.1,83,52,26,29.21,29.10,10,3,16,0.00
2012-6-14,81.9,64.0,44.2,52.7,44.6,37.0,86,54,21,29.22,29.13,10,3,14,0.00
2012-6-15,87.5,70.3,48.9,60.7,49.6,43.7,89,54,22,29.18,29.12,10,2,14,0.00
2012-6-16,89.7,74.2,59.0,63.8,59.6,54.4,89,63,34,29.18,28.95,15,4,22,0.01
2012-6-17,81.1,72.1,57.0,67.8,61.7,51.1,90,70,38,28.95,28.83,9,3,13,0.17
2012-6-18,80.3,67.5,52.0,67.9,59.8,49.2,92,77,53,28.93,28.80,17,4,23,0.66
2012-6-19,94.0,82.7,73.5,66.6,63.6,61.4,73,53,36,29.04,28.89,10,4,16,0.00
2012-6-20,91.7,79.9,67.7,64.1,60.5,56.0,78,53,31,29.11,28.94,13,4,18,0.00
2012-6-21,89.9,76.2,62.3,70.3,62.4,58.9,90,64,41,28.98,28.84,23,4,29,0.02
2012-6-22,81.8,69.8,57.9,61.5,55.6,46.9,93,65,31,28.99,28.93,12,3,15,0.00
2012-6-23,83.0,69.0,52.3,58.5,52.5,46.5,91,61,29,29.06,28.99,8,2,11,0.00
2012-6-24,86.3,74.9,63.8,60.4,56.6,51.7,79,55,32,29.05,28.90,11,3,16,0.00
2012-6-25,74.1,67.0,52.4,60.5,48.1,38.3,78,53,28,29.05,28.93,14,6,19,0.00
2012-6-26,81.0,64.6,44.9,52.0,45.0,40.3,90,55,25,29.08,28.96,11,3,17,0.00
2012-6-27,88.6,71.1,50.7,55.7,48.1,43.5,90,51,21,29.03,28.82,10,2,14,0.00
2012-6-28,99.5,81.9,62.3,72.3,61.3,50.0,73,51,36,28.87,28.71,11,3,16,0.00
2012-6-29,89.5,77.8,61.6,69.2,61.7,51.4,90,61,27,28.89,28.76,10,2,14,0.00
2012-6-30,91.0,77.1,61.6,64.2,61.2,57.3,86,60,35,28.87,28.78,9,2,14,0.00
2012-7-1,90.8,76.4,59.1,66.8,61.3,55.9,90,62,37,28.98,28.87,12,2,15,0.00
2012-7-2,94.9,78.5,59.9,66.8,62.1,56.9,92,62,29,29.04,28.93,8,2,11,0.00
2012-7-3,94.5,80.9,69.4,71.7,67.6,61.8,86,65,34,28.96,28.82,12,3,16,0.00
2012-7-4,100.9,85.4,69.8,71.3,67.2,60.5,87,58,27,28.89,28.82,15,2,20,0.00
2012-7-5,96.4,78.2,68.3,71.8,68.1,64.1,90,72,39,28.99,28.88,24,2,36,0.47
2012-7-6,102.6,85.3,67.3,75.3,68.4,64.0,91,62,30,28.99,28.91,8,2,11,0.00
2012-7-7,98.8,85.4,73.7,74.2,70.1,64.0,88,62,36,29.00,28.89,12,4,16,0.00
2012-7-8,84.7,74.7,63.7,64.9,58.9,51.8,89,60,33,29.06,28.99,12,4,17,0.13
2012-7-9,86.5,71.8,56.5,63.4,58.3,53.8,92,66,35,29.07,28.98,9,2,11,0.00
2012-7-10,84.8,72.1,58.5,60.9,53.5,46.9,91,56,28,29.14,29.02,10,2,13,0.00
2012-7-11,85.5,71.1,51.1,56.1,50.0,43.9,91,53,25,29.18,29.11,12,2,18,0.00
2012-7-12,88.8,71.8,50.3,60.2,52.1,47.0,91,56,25,29.16,29.08,11,2,16,0.00
2012-7-13,92.3,76.4,58.9,65.5,58.5,51.7,90,58,27,29.14,29.06,11,4,15,0.00
2012-7-14,90.3,75.9,59.5,67.3,61.5,56.0,89,63,33,29.12,29.00,10,3,12,0.00
2012-7-15,93.0,80.3,70.4,67.2,64.2,58.3,85,60,31,29.07,28.95,13,2,17,0.00
2012-7-16,96.8,81.4,64.3,67.2,62.0,53.2,88,56,24,29.03,28.86,11,2,13,0.00
2012-7-17,99.5,88.4,71.6,68.9,64.3,60.6,75,47,28,28.88,28.78,12,3,17,0.00
2012-7-18,88.3,78.7,71.6,69.1,66.3,63.4,83,67,45,29.01,28.84,11,3,13,0.00
2012-7-19,80.4,73.1,65.1,69.2,66.8,60.6,91,80,65,28.98,28.91,8,2,12,0.17
2012-7-20,81.4,70.5,60.2,61.0,55.2,50.1,86,61,34,29.07,28.98,13,4,16,0.00
2012-7-21,88.0,71.5,52.5,61.9,55.6,49.5,91,61,31,29.12,29.03,10,2,21,0.00
2012-7-22,92.1,78.3,63.1,65.7,62.5,58.7,89,61,35,29.10,29.02,12,3,15,0.00
2012-7-23,95.2,83.8,74.0,67.6,65.3,62.9,75,55,38,29.05,28.84,15,4,22,0.00
2012-7-24,86.0,79.5,64.6,68.0,60.1,48.4,71,53,29,29.00,28.86,14,5,19,0.00
2012-7-25,90.1,73.7,51.0,73.1,57.7,48.0,90,60,36,29.00,28.64,15,5,19,0.00
2012-7-26,85.2,77.9,71.5,73.5,68.8,66.4,89,74,57,28.76,28.62,9,3,13,0.09
2012-7-27,85.5,71.7,65.9,67.6,64.9,60.1,91,80,46,28.93,28.74,12,2,20,0.15
2012-7-28,81.8,70.4,59.0,63.7,59.0,54.9,90,69,41,29.10,28.92,13,5,17,0.00
2012-7-29,86.8,70.2,51.1,59.4,51.6,47.3,92,58,26,29.12,29.01,8,2,12,0.00
2012-7-30,90.7,74.6,57.7,61.8,57.5,50.4,91,60,25,29.05,28.91,10,2,13,0.00
2012-7-31,86.5,73.4,63.4,65.2,62.0,58.4,91,69,39,28.98,28.86,17,4,24,0.35
2012-8-1,85.3,71.0,58.3,61.5,55.9,48.1,92,64,28,28.96,28.89,11,3,15,0.00
2012-8-2,90.1,73.3,55.8,67.8,58.9,52.9,90,65,35,28.93,28.85,10,2,15,0.00
2012-8-3,95.1,79.6,61.1,66.3,60.7,52.6,92,58,24,28.97,28.89,11,3,14,0.00
2012-8-4,90.1,81.4,65.0,71.0,68.1,62.2,92,65,47,28.99,28.79,18,6,24,0.00
2012-8-5,85.8,74.2,63.5,69.9,62.1,46.9,90,70,29,29.13,28.86,16,4,22,0.05
2012-8-6,84.5,68.2,48.0,54.6,48.3,42.8,91,55,25,29.18,29.02,11,2,15,0.00
2012-8-7,89.7,71.9,51.0,59.5,53.1,48.6,92,57,28,29.03,28.91,11,2,18,0.00
2012-8-8,87.1,73.7,61.7,63.3,56.7,51.3,88,59,29,28.99,28.94,11,3,15,0.00
2012-8-9,69.8,64.7,61.7,62.2,59.9,53.2,93,85,56,28.98,28.80,6,2,9,1.34
2012-8-10,68.1,62.0,58.9,60.3,58.6,55.2,93,88,71,28.82,28.66,14,5,18,0.40
2012-8-11,71.1,60.9,57.6,61.6,57.0,55.0,92,87,62,28.95,28.74,13,5,19,0.09
2012-8-12,78.4,67.4,56.3,59.4,55.9,51.7,92,69,40,29.02,28.94,11,2,19,0.00
2012-8-13,74.0,65.9,60.6,61.1,58.6,55.2,92,78,54,29.02,28.95,7,1,9,0.03
2012-8-14,78.5,66.4,58.0,61.5,58.3,53.5,93,77,43,28.96,28.89,11,2,14,0.32
2012-8-15,82.5,67.5,53.5,63.1,57.6,51.2,93,73,39,28.98,28.92,8,2,11,0.00
2012-8-16,79.7,69.2,60.5,64.0,60.8,57.9,93,76,49,28.97,28.75,17,4,24,0.01
2012-8-17,75.0,65.7,56.6,61.2,53.8,45.7,92,68,36,28.98,28.84,12,3,16,0.00
2012-8-18,75.3,60.6,43.4,52.0,45.4,39.0,93,62,30,29.04,28.95,8,2,10,0.00
2012-8-19,78.0,63.2,50.1,54.9,48.8,42.8,90,64,29,28.97,28.89,9,2,13,0.00
2012-8-20,76.6,61.9,48.0,55.8,49.5,44.2,92,68,32,29.00,28.93,10,2,13,0.00
2012-8-21,78.8,63.1,48.1,56.6,50.5,44.8,91,68,31,29.10,29.00,9,2,12,0.00
2012-8-22,80.7,64.7,48.5,56.9,51.0,45.8,92,66,32,29.15,29.00,9,1,12,0.00
2012-8-23,87.2,67.7,48.8,59.4,52.3,46.1,92,63,28,29.16,29.08,8,1,9,0.00
2012-8-24,88.3,71.8,54.2,61.0,55.4,50.8,91,61,28,29.13,29.05,11,3,14,0.00
2012-8-25,91.4,75.5,57.2,63.3,57.1,49.7,92,58,24,29.13,29.06,13,3,18,0.00
2012-8-26,91.0,75.3,59.7,67.7,60.2,54.8,93,63,30,29.14,29.00,13,4,18,0.00
2012-8-27,84.9,72.9,64.5,69.9,65.3,57.7,93,79,43,29.05,28.95,11,3,15,0.51
2012-8-28,79.7,68.3,56.2,57.9,54.3,51.0,91,63,37,29.12,29.03,14,4,18,0.00
2012-8-29,80.3,65.1,50.2,59.9,54.1,47.9,94,71,36,29.13,29.03,8,1,16,0.00
2012-8-30,83.6,67.6,50.2,60.2,55.0,48.0,93,68,36,29.12,29.00,12,3,16,0.00
2012-8-31,92.2,76.9,60.7,68.7,61.8,54.5,87,61,42,29.06,29.00,10,2,16,0.00
2012-9-1,82.8,74.3,68.0,67.2,59.5,52.7,88,61,42,29.13,29.03,8,2,10,0.00
2012-9-2,79.5,72.0,65.9,68.3,62.2,56.4,81,71,56,29.06,28.95,7,2,11,0.00
2012-9-3,90.3,74.5,59.2,68.7,63.3,56.0,90,70,45,28.99,28.88,9,2,12,0.00
2012-9-4,81.8,70.8,64.0,69.3,66.0,61.5,93,85,55,28.93,28.86,8,1,11,0.01
2012-9-5,79.3,69.3,60.1,69.0,64.1,58.0,94,84,64,28.91,28.79,14,3,19,0.06
2012-9-6,85.5,72.3,62.4,65.8,60.9,53.7,93,71,34,28.93,28.83,9,2,12,0.05
2012-9-7,81.5,67.5,53.3,64.3,57.4,50.7,93,72,39,28.93,28.70,15,3,20,0.04
2012-9-8,70.7,61.1,51.8,57.2,50.8,45.4,92,71,43,28.86,28.68,15,6,20,0.67
2012-9-9,71.2,57.3,46.2,52.7,47.0,43.2,92,72,37,29.10,28.86,10,2,13,0.00
2012-9-10,73.8,56.7,40.4,50.4,42.3,32.8,93,65,24,29.23,29.02,8,1,10,0.00
2012-9-11,78.9,62.8,43.3,54.4,48.5,40.5,91,63,37,29.21,29.13,14,4,18,0.00
2012-9-12,82.5,67.4,51.9,57.3,52.5,47.7,87,61,35,29.23,29.15,12,3,16,0.00
2012-9-13,83.4,70.3,60.2,59.1,54.8,47.2,83,60,29,29.25,29.17,11,3,17,0.00
2012-9-14,71.1,59.7,51.4,56.9,48.8,39.7,92,71,33,29.29,29.22,13,5,18,0.74
2012-9-15,72.5,57.0,41.5,49.2,43.3,38.0,92,65,29,29.33,29.16,9,2,15,0.00
2012-9-16,76.8,59.8,43.9,53.8,46.7,40.8,91,66,30,29.16,29.02,10,2,15,0.00
2012-9-17,75.7,63.2,48.7,58.8,50.1,44.0,88,64,37,29.03,28.72,11,3,15,0.00
2012-9-18,66.0,56.4,39.3,60.0,46.1,31.9,89,69,43,28.97,28.63,20,6,25,0.06
2012-9-19,66.2,51.6,34.6,42.1,35.5,32.4,93,59,30,29.10,28.96,15,4,22,0.00
2012-9-20,70.7,58.9,44.7,50.9,43.1,36.3,87,56,39,28.97,28.84,14,6,22,0.02
2012-9-21,69.9,54.1,41.3,49.8,41.8,33.4,92,69,26,28.93,28.78,16,2,19,0.17
2012-9-22,55.5,50.3,42.1,48.7,45.4,39.7,93,83,65,29.07,28.73,10,2,16,0.29
2012-9-23,56.2,46.7,36.0,43.3,38.4,32.9,93,74,44,29.20,29.07,12,2,18,0.01
2012-9-24,62.9,50.1,34.4,38.2,33.6,30.9,93,58,31,29.20,28.20,15,4,21,0.00
2012-9-25,66.9,57.2,44.9,56.1,44.4,33.3,91,63,43,28.95,28.87,11,4,15,0.00
2012-9-26,68.6,61.6,50.2,60.8,56.0,46.2,92,82,55,29.13,28.88,10,3,13,0.00
2012-9-27,65.3,52.8,41.7,46.5,41.8,38.4,92,69,40,29.22,29.11,7,1,13,0.00
2012-9-28,69.3,55.1,43.4,50.0,44.2,39.3,92,70,38,29.17,28.88,8,1,10,0.00
2012-9-29,71.1,54.2,39.0,48.2,41.3,35.2,92,67,31,29.09,28.43,10,2,13,0.00
2012-9-30,65.4,51.9,41.2,47.9,42.8,37.8,93,74,40,28.96,28.91,11,3,15,0.00
2012-10-1,65.6,51.1,36.4,50.1,41.4,34.3,93,72,43,28.95,28.85,7,1,9,0.00
2012-10-2,65.7,57.8,50.7,54.8,49.6,45.5,91,75,52,28.92,28.09,8,2,11,0.04
2012-10-3,66.3,59.8,55.5,57.0,53.2,50.9,93,79,61,29.06,28.90,12,4,14,0.00
2012-10-4,75.8,63.8,52.8,58.2,50.4,47.5,87,64,37,29.09,28.99,14,5,20,0.05
2012-10-5,61.4,51.8,42.8,57.5,45.3,38.5,90,78,60,29.07,28.51,8,2,11,0.22
2012-10-6,47.6,42.4,36.8,40.1,35.3,31.2,92,76,55,29.10,28.18,11,2,15,0.00
2012-10-7,43.8,40.2,32.4,38.6,35.6,30.7,93,83,67,29.14,28.16,6,1,8,0.08
2012-10-8,53.6,39.5,26.1,34.6,28.0,23.1,95,68,31,29.19,28.58,12,3,16,0.00
2012-10-9,61.9,47.8,33.3,36.8,32.8,28.0,82,58,36,29.10,28.83,17,7,23,0.00
2012-10-10,51.6,43.0,30.5,40.6,34.1,25.8,91,72,48,29.15,28.79,14,3,19,0.17
2012-10-11,61.9,44.8,27.2,39.0,29.8,25.4,94,61,29,29.17,28.68,16,5,24,0.00
2012-10-12,52.8,39.1,30.2,37.2,30.3,17.9,91,73,27,29.42,29.17,12,4,16,0.01
2012-10-13,62.5,41.7,26.6,60.2,37.9,23.3,93,86,71,29.36,28.41,10,3,15,0.95
2012-10-14,69.5,64.1,54.8,60.5,58.2,49.3,92,81,63,28.89,28.45,21,10,29,0.09
2012-10-15,54.6,47.9,44.8,50.0,41.0,38.3,88,76,69,28.94,28.37,12,4,21,0.00
2012-10-16,60.0,48.2,32.5,41.2,36.3,30.2,94,65,41,28.98,28.13,11,4,14,0.00
2012-10-17,73.1,61.0,51.7,54.5,46.4,40.4,92,61,35,28.75,28.55,21,9,28,0.49
2012-10-18,59.3,54.5,48.6,53.8,43.1,32.2,91,67,37,28.65,28.38,20,8,30,0.41
2012-10-19,53.7,47.3,41.8,43.1,39.8,35.3,91,75,59,28.65,28.18,14,5,18,0.13
2012-10-20,55.2,47.3,41.0,43.9,41.5,38.4,92,80,56,28.90,28.18,8,3,13,0.03
2012-10-21,61.8,46.2,34.4,44.6,37.9,32.8,94,76,39,29.08,28.10,14,2,16,0.00
2012-10-22,69.8,53.3,36.6,56.7,46.4,33.6,92,78,57,29.08,28.23,8,2,12,0.20
2012-10-23,71.6,63.1,57.2,58.8,56.8,55.0,92,80,63,29.00,28.89,10,3,15,0.31
2012-10-24,76.8,65.8,57.5,59.8,57.3,54.9,91,75,51,29.02,28.96,13,4,16,0.01
2012-10-25,75.6,65.2,54.0,57.8,53.3,49.7,86,66,48,28.98,28.84,19,7,26,0.00
2012-10-26,68.5,48.1,37.4,55.3,38.4,31.1,86,69,52,29.22,28.84,18,7,26,0.03
2012-10-27,51.9,42.6,34.4,34.6,30.8,28.3,80,63,44,29.21,28.45,14,6,18,0.00
2012-10-28,47.4,39.6,32.6,33.1,28.5,24.0,84,65,45,29.20,29.10,17,8,22,0.00
2012-10-29,42.2,39.4,36.4,28.6,25.0,20.0,65,56,43,29.11,28.74,26,12,38,0.00
2012-10-30,38.6,35.4,33.0,34.5,30.9,22.2,90,83,51,28.74,27.84,24,14,32,0.30
2012-10-31,41.0,37.5,34.8,36.7,34.2,31.9,90,87,79,47.02,28.53,16,10,23,0.01
2012-11-1,47.9,41.0,37.2,35.6,30.2,25.2,89,66,43,28.79,28.67,15,8,21,0.00
2012-11-2,41.2,38.4,33.9,30.5,27.1,24.9,76,63,55,29.06,28.79,15,7,21,0.00
2012-11-3,43.0,34.4,27.5,28.5,26.6,24.0,90,73,54,29.17,28.29,10,4,15,0.00
2012-11-4,37.6,30.4,21.1,25.2,22.8,18.3,91,74,56,29.19,29.14,8,2,12,0.00
2012-11-5,43.9,29.6,19.6,27.3,21.6,16.5,90,73,44,29.20,29.13,7,1,9,0.00
2012-11-6,42.8,28.4,16.4,28.8,21.8,12.9,90,77,50,29.14,28.95,10,2,13,0.00
2012-11-7,48.1,32.2,20.3,31.5,24.5,17.4,91,75,46,29.13,28.95,9,2,11,0.00
2012-11-8,49.9,32.3,19.3,30.7,24.3,16.6,90,74,43,29.20,29.11,6,1,9,0.00
2012-11-9,55.0,41.7,25.0,42.5,33.3,22.5,92,73,52,29.17,29.06,12,3,14,0.00
2012-11-10,63.2,54.4,45.8,48.0,44.3,41.0,87,69,50,29.11,28.28,13,6,19,0.00
2012-11-11,67.3,59.4,50.9,47.2,42.0,35.5,67,52,39,29.11,28.93,21,11,27,0.00
2012-11-12,60.1,43.9,31.8,51.3,35.9,20.5,91,74,45,29.40,28.69,17,6,24,0.46
2012-11-13,33.0,30.5,20.8,24.6,19.5,15.9,89,64,50,29.50,29.23,9,2,12,0.00
2012-11-14,39.4,26.8,16.0,25.1,20.2,12.8,90,77,51,29.55,28.97,11,1,13,0.00
2012-11-15,46.4,32.6,23.5,30.2,26.0,21.0,90,77,51,29.40,28.90,5,1,7,0.00
2012-11-16,52.7,32.9,19.0,34.0,24.7,15.9,89,74,39,29.47,29.34,7,1,8,0.00
2012-11-17,52.4,33.9,21.2,33.2,25.9,18.5,90,75,41,30.38,29.47,10,2,11,0.00
2012-11-18,54.2,40.2,26.2,39.8,32.7,23.2,94,77,38,29.53,28.38,10,2,12,0.00
2012-11-19,54.9,41.5,25.0,37.0,30.6,22.6,94,68,37,29.38,29.15,8,2,10,0.00
2012-11-20,57.9,43.8,34.6,40.6,35.3,30.6,90,73,47,29.16,28.21,5,1,6,0.00
2012-11-21,58.7,40.2,26.9,41.8,33.7,24.7,92,79,52,30.45,28.50,8,1,10,0.00
2012-11-22,60.6,48.6,29.9,44.9,39.6,27.8,94,73,48,31.38,28.17,16,7,21,0.05
2012-11-23,53.3,38.7,30.1,47.2,30.7,19.3,89,72,60,29.01,28.18,17,7,20,0.10
2012-11-24,31.3,29.7,28.3,19.5,17.7,15.4,66,60,53,29.09,29.00,19,7,25,0.00
2012-11-25,35.5,30.9,25.4,25.6,22.4,18.4,87,70,61,29.02,28.82,12,4,15,0.01
2012-11-26,33.6,30.5,25.8,25.4,21.6,16.1,88,69,53,29.26,28.70,9,2,14,0.00
2012-11-27,34.6,26.5,18.9,17.6,15.1,13.6,83,62,42,29.55,29.20,8,2,11,0.00
2012-11-28,39.3,29.4,22.1,24.7,18.6,14.4,82,64,49,29.29,29.17,10,3,19,0.00
2012-11-29,47.8,35.6,23.3,26.2,23.7,18.6,83,62,42,29.27,29.16,11,3,14,0.00
2012-11-30,45.1,37.9,29.4,34.0,30.2,24.8,87,74,56,29.23,29.10,8,2,12,0.00
2012-12-1,55.8,43.5,34.0,46.0,38.5,31.2,93,83,66,32.68,28.14,17,6,22,0.00
2012-12-2,56.2,52.9,40.5,52.3,48.6,39.2,95,85,67,29.11,28.91,15,3,23,0.16
2012-12-3,60.5,51.6,37.0,58.6,50.1,36.1,97,94,81,29.12,28.91,16,5,21,0.00
2012-12-4,60.2,49.8,40.2,54.7,43.7,29.9,93,79,66,29.12,28.90,12,5,18,0.23
2012-12-5,40.1,30.4,19.8,29.9,20.8,17.0,92,68,49,29.38,29.12,14,5,18,0.00
2012-12-6,36.6,30.0,20.0,29.3,24.7,17.5,94,80,63,29.32,28.95,11,4,14,0.00
2012-12-7,42.1,39.0,33.8,40.6,36.8,29.2,96,91,82,28.96,28.87,5,1,7,0.11
2012-12-8,40.8,36.2,32.0,39.9,34.2,28.1,96,92,84,29.15,28.82,9,4,13,0.20
2012-12-9,36.9,34.2,32.0,35.5,31.4,27.5,97,89,78,29.15,28.65,9,3,15,0.09
2012-12-10,39.6,35.3,30.1,38.5,30.9,20.4,97,83,68,28.86,28.61,13,4,18,0.00
2012-12-11,33.9,27.9,20.7,26.7,20.7,17.5,93,75,56,29.13,28.86,10,4,15,0.00
2012-12-12,42.9,31.0,23.6,24.8,22.0,19.9,87,71,40,29.34,29.13,11,4,15,0.00
2012-12-13,44.1,33.1,24.2,26.3,23.7,20.5,91,69,43,29.34,29.15,14,6,18,0.00
2012-12-14,48.4,34.3,25.0,32.3,26.5,21.5,93,74,49,29.22,29.14,7,2,9,0.00
2012-12-15,42.8,35.0,24.3,41.6,31.3,23.0,96,86,65,29.16,28.68,13,4,17,0.07
2012-12-16,51.7,46.1,40.2,47.8,43.5,37.2,96,90,75,28.69,28.59,10,4,14,0.05
2012-12-17,40.2,38.6,36.0,37.3,33.5,30.1,92,81,74,28.74,28.63,6,2,9,0.00
2012-12-18,39.8,35.2,30.8,33.3,29.5,24.2,94,80,53,28.78,28.65,10,4,14,0.03
2012-12-19,41.2,35.5,30.2,34.4,32.4,27.9,96,88,67,29.10,28.72,8,2,10,0.00
2012-12-20,46.4,38.5,32.2,45.1,35.7,29.1,96,89,75,29.06,28.16,17,7,23,0.79
2012-12-21,32.5,30.9,28.4,31.5,26.7,21.5,97,84,68,28.90,28.18,24,12,33,0.00
2012-12-22,34.5,29.1,23.7,23.3,20.8,18.2,89,71,55,29.08,28.90,23,8,31,0.00
2012-12-23,33.5,24.5,14.4,22.7,18.6,12.5,94,78,63,29.02,28.88,12,3,15,0.02
2012-12-24,30.5,24.9,16.4,27.0,21.8,14.1,96,88,75,28.99,28.80,9,3,11,0.00
2012-12-25,31.9,27.1,21.8,24.2,21.2,18.5,91,78,65,29.28,28.98,10,5,12,0.01
2012-12-26,28.8,26.8,24.3,26.3,23.5,20.8,96,87,74,29.25,28.83,16,7,23,0.00
2012-12-27,25.9,23.9,22.9,24.8,22.8,21.8,96,95,92,29.09,28.88,14,8,20,0.00
2012-12-28,27.9,13.5,4.2,24.2,10.8,1.1,92,88,83,29.15,28.91,5,1,7,0.00
2012-12-29,27.8,24.8,14.2,24.3,22.2,12.2,95,90,82,29.05,28.81,9,4,12,0.00
2012-12-30,27.5,22.1,13.2,25.1,18.3,10.5,94,85,75,29.28,29.05,9,3,14,0.00
2012-12-31,34.1,27.5,18.6,26.5,21.0,14.9,85,76,67,29.17,28.91,13,6,16,0.04
2013-1-1,27.0,19.8,6.3,18.1,10.3,2.5,86,66,46,29.14,29.00,14,4,16,0.00